GW6014 Weather Reports


time (UTC)temp
C
wind
direction
speed
KPH
gust
KPH
rain 1hr
cm
rain 24hr
cm
rain mn
cm
humidity
%
barometer
mb
20260906130819 21 51 3.2 4.8 0.00 0.00 0.00 95 1018.2
20260906130318 21 90 4.8 6.4 0.00 0.00 0.00 95 1017.9
20260906125818 21 59 4.8 6.4 0.00 0.00 0.00 95 1018.0
20260906125315 21 31 3.2 6.4 0.00 0.00 0.00 95 1018.1
20260906124809 21 61 4.8 12.9 0.00 0.00 0.00 95 1018.0
20260906124306 21 65 3.2 6.4 0.00 0.00 0.00 95 1017.9
20260906123804 21 56 6.4 9.7 0.00 0.00 0.00 95 1017.9
20260906123259 21 47 3.2 4.8 0.00 0.00 0.00 95 1017.8
20260906122759 21 14 3.2 6.4 0.00 0.00 0.00 95 1017.7
20260906122254 21 42 3.2 9.7 0.00 0.00 0.00 95 1017.7
20260906121751 21 17 6.4 6.4 0.00 0.00 0.00 95 1017.9
20260906121247 21 19 1.6 6.4 0.00 0.00 0.00 95 1017.8
20260906120742 21 66 6.4 6.4 0.00 0.00 0.00 95 1017.8
20260906120239 21 53 4.8 12.9 0.00 0.00 0.00 95 1017.9
20260906115735 21 34 3.2 6.4 0.00 0.00 0.00 95 1017.6
20260906115230 21 56 4.8 9.7 0.00 0.00 0.00 95 1017.4
20260906114728 21 43 4.8 4.8 0.00 0.00 0.00 95 1017.4
20260906114224 21 32 3.2 11.3 0.00 0.00 0.00 95 1017.1
20260906113719 21 53 3.2 9.7 0.00 0.00 0.00 95 1017.1
20260906113218 21 15 6.4 9.7 0.00 0.00 0.00 95 1017.2
20260906112712 21 24 1.6 6.4 0.00 0.00 0.00 95 1017.1
20260906112210 21 42 3.2 6.4 0.00 0.00 0.00 95 1016.9
20260906111709 21 65 3.2 9.7 0.00 0.00 0.00 95 1016.9
20260906111204 21 30 3.2 6.4 0.00 0.00 0.00 94 1016.6
20260906110658 21 50 4.8 9.7 0.00 0.00 0.00 94 1016.8
20260906110154 21 15 4.8 4.8 0.00 0.00 0.00 94 1016.7
20260906105647 21 24 3.2 4.8 0.00 0.00 0.00 93 1016.6
20260906105144 21 48 1.6 9.7 0.00 0.00 0.00 93 1016.5
20260906104643 21 19 1.6 4.8 0.00 0.00 0.00 93 1016.5
20260906104142 21 43 4.8 6.4 0.00 0.00 0.00 93 1016.7
20260906103641 21 41 4.8 4.8 0.00 0.00 0.00 92 1016.6
20260906103136 21 38 4.8 4.8 0.00 0.00 0.00 92 1016.5
20260906102631 21 46 1.6 4.8 0.00 0.00 0.00 92 1016.5
20260906102131 21 351 1.6 3.2 0.00 0.00 0.00 92 1016.7
20260906101631 22 32 1.6 6.4 0.00 0.00 0.00 92 1016.5
20260906101126 22 40 0.0 4.8 0.00 0.00 0.00 92 1016.5
20260906100621 22 39 1.6 3.2 0.00 0.00 0.00 91 1016.1
20260906100116 22 77 3.2 4.8 0.00 0.00 0.00 91 1016.2
20260906095615 22 60 4.8 6.4 0.00 0.00 0.00 91 1016.0
20260906095111 22 50 1.6 3.2 0.00 0.00 0.00 91 1016.0
20260906094610 22 4 4.8 4.8 0.00 0.00 0.00 90 1016.1
20260906094106 22 60 4.8 4.8 0.00 0.00 0.00 90 1016.4
20260906093602 22 65 3.2 6.4 0.00 0.00 0.00 90 1016.1
20260906093057 22 31 3.2 3.2 0.00 0.00 0.00 90 1016.2
20260906092552 22 44 1.6 4.8 0.00 0.00 0.00 90 1016.1
20260906092047 22 66 3.2 6.4 0.00 0.00 0.00 90 1016.2
20260906091542 22 15 3.2 6.4 0.00 0.00 0.00 90 1016.0
20260906091039 23 39 0.0 4.8 0.00 0.00 0.00 90 1016.1
20260906090539 23 60 3.2 4.8 0.00 0.00 0.00 90 1016.0
20260906090039 23 17 1.6 4.8 0.00 0.00 0.00 90 1016.1
20260906085538 23 35 4.8 6.4 0.00 0.00 0.00 89 1016.0
20260906085038 23 30 6.4 11.3 0.00 0.00 0.00 89 1015.9
20260906084533 23 38 6.4 9.7 0.00 0.00 0.00 88 1015.7
20260906084031 23 51 3.2 9.7 0.00 0.00 0.00 87 1015.6
20260906083527 24 43 1.6 4.8 0.00 0.00 0.00 86 1015.7
20260906083027 24 37 3.2 4.8 0.00 0.00 0.00 85 1015.7
20260906082522 24 50 4.8 12.9 0.00 0.00 0.00 85 1015.7
20260906082018 24 60 3.2 6.4 0.00 0.00 0.00 85 1015.8
20260906081514 24 74 4.8 6.4 0.00 0.00 0.00 85 1015.7
20260906081009 24 56 3.2 6.4 0.00 0.00 0.00 84 1015.7
20260906080506 24 31 1.6 4.8 0.00 0.00 0.00 85 1015.7
20260906080001 24 62 1.6 6.4 0.00 0.00 0.00 85 1015.8
20260906075456 24 59 3.2 11.3 0.00 0.00 0.00 85 1015.7
20260906074951 24 55 1.6 3.2 0.00 0.00 0.00 85 1015.7
20260906074450 25 22 1.6 4.8 0.00 0.00 0.00 85 1015.9
20260906073949 25 27 3.2 4.8 0.00 0.00 0.00 84 1015.8
20260906073444 25 30 3.2 6.4 0.00 0.00 0.00 85 1015.8
20260906072940 25 59 3.2 4.8 0.00 0.00 0.00 86 1015.8
20260906072435 25 54 1.6 3.2 0.00 0.00 0.00 85 1015.8
20260906071931 25 34 0.0 1.6 0.00 0.00 0.00 84 1015.7
20260906071427 25 24 1.6 3.2 0.00 0.00 0.00 83 1015.9
20260906070923 25 38 3.2 4.8 0.00 0.00 0.00 82 1015.6
20260906070419 25 49 0.0 4.8 0.00 0.00 0.00 81 1015.7
20260906065915 25 71 1.6 4.8 0.00 0.00 0.00 81 1015.6
20260906065408 25 61 6.4 9.7 0.00 0.00 0.00 81 1015.6
20260906064905 25 85 3.2 3.2 0.00 0.00 0.00 83 1015.7
20260906064401 25 96 0.0 4.8 0.00 0.00 0.00 83 1015.7
20260906063900 25 86 1.6 3.2 0.00 0.00 0.00 84 1015.6
20260906063355 25 72 1.6 3.2 0.00 0.00 0.00 84 1015.7
20260906062850 26 62 1.6 3.2 0.00 0.00 0.00 83 1015.7
20260906062349 26 34 1.6 4.8 0.00 0.00 0.00 83 1015.9
20260906061845 26 102 3.2 4.8 0.00 0.00 0.00 83 1015.7
20260906061342 26 94 6.4 12.9 0.00 0.00 0.00 82 1015.8
20260906060836 26 94 4.8 11.3 0.00 0.00 0.00 84 1015.8
20260906060334 26 91 6.4 9.7 0.00 0.00 0.00 84 1015.7
20260906055829 26 75 4.8 6.4 0.00 0.00 0.00 85 1015.8
20260906055325 26 116 1.6 9.7 0.00 0.00 0.00 85 1015.9
20260906054820 27 74 1.6 3.2 0.00 0.00 0.00 84 1016.0
20260906054315 27 95 0.0 1.6 0.00 0.00 0.00 83 1016.0
20260906053812 27 56 1.6 4.8 0.00 0.00 0.00 83 1015.8
20260906053307 27 159 1.6 3.2 0.00 0.00 0.00 83 1015.6
20260906052802 27 87 4.8 9.7 0.00 0.00 0.00 82 1015.9
20260906052258 27 59 8.0 11.3 0.00 0.00 0.00 82 1015.7
20260906051755 27 106 3.2 6.4 0.00 0.00 0.00 81 1015.8
20260906051254 27 74 3.2 4.8 0.00 0.00 0.00 81 1015.7
20260906050750 27 70 6.4 11.3 0.00 0.00 0.00 81 1015.6
20260906050245 27 67 3.2 6.4 0.00 0.00 0.00 81 1015.7
20260906045744 27 23 1.6 9.7 0.00 0.00 0.00 81 1015.7
20260906045238 27 74 1.6 6.4 0.00 0.00 0.00 81 1015.6
20260906044734 27 22 1.6 4.8 0.00 0.00 0.00 81 1015.5
20260906044229 27 32 1.6 4.8 0.00 0.00 0.00 80 1015.2
20260906043726 27 73 6.4 6.4 0.00 0.00 0.00 80 1015.4
20260906043221 27 59 3.2 4.8 0.00 0.00 0.00 80 1015.3
20260906042721 27 32 1.6 3.2 0.00 0.00 0.00 80 1015.3
20260906042220 27 23 1.6 1.6 0.00 0.00 0.00 79 1015.0
20260906041716 27 35 1.6 3.2 0.00 0.00 0.00 78 1015.1
20260906041211 27 44 3.2 3.2 0.00 0.00 0.00 78 1015.0
20260906040707 27 29 3.2 9.7 0.00 0.00 0.00 78 1015.2
20260906040202 27 358 3.2 3.2 0.00 0.00 0.00 77 1015.0
20260906035657 27 59 1.6 3.2 0.00 0.00 0.00 77 1014.9
20260906035153 27 16 3.2 3.2 0.00 0.00 0.00 77 1014.7
20260906034653 27 46 1.6 6.4 0.00 0.00 0.00 76 1014.7
20260906034147 27 51 3.2 4.8 0.00 0.00 0.00 76 1014.8
20260906033644 27 76 3.2 3.2 0.00 0.00 0.00 76 1014.8
20260906033143 28 19 1.6 3.2 0.00 0.00 0.00 75 1014.9
20260906032640 28 21 1.6 4.8 0.00 0.00 0.00 74 1014.8
20260906032140 28 33 1.6 3.2 0.00 0.00 0.00 75 1014.7
20260906031635 27 41 1.6 6.4 0.00 0.00 0.00 75 1014.6
20260906031131 27 51 0.0 3.2 0.00 0.00 0.00 75 1014.7
20260906030630 27 35 1.6 1.6 0.00 0.00 0.00 76 1014.9
20260906030125 27 31 0.0 0.0 0.00 0.00 0.00 78 1014.6
20260906025624 27 32 0.0 0.0 0.00 0.00 0.00 77 1014.7
20260906025123 26 36 0.0 1.6 0.00 0.00 0.00 77 1014.6
20260906024618 27 36 0.0 0.0 0.00 0.00 0.00 77 1014.7
20260906024113 27 29 0.0 0.0 0.00 0.00 0.00 76 1014.7
20260906023609 27 24 0.0 1.6 0.00 0.00 0.00 75 1014.4
20260906023109 27 27 0.0 0.0 0.00 0.00 0.00 74 1014.4
20260906022604 27 11 1.6 1.6 0.00 0.00 0.00 75 1014.3
20260906022100 27 39 1.6 1.6 0.00 0.00 0.00 73 1014.1
20260906021555 27 21 0.0 0.0 0.00 0.00 0.00 73 1014.0
20260906021054 27 35 0.0 0.0 0.00 0.00 0.00 73 1014.2
20260906020549 27 28 0.0 0.0 0.00 0.00 0.00 73 1013.9
20260906020048 27 42 0.0 0.0 0.00 0.00 0.00 72 1013.9
20260906015547 28 32 0.0 0.0 0.00 0.00 0.00 70 1013.9
20260906015042 28 30 0.0 0.0 0.00 0.00 0.00 69 1013.8
20260906014542 28 32 0.0 0.0 0.00 0.00 0.00 69 1013.8
20260906014038 28 29 0.0 1.6 0.00 0.00 0.00 69 1013.6
20260906013533 28 31 0.0 0.0 0.00 0.00 0.00 67 1013.7
20260906013028 28 25 0.0 1.6 0.00 0.00 0.00 66 1013.5
20260906012523 29 35 0.0 0.0 0.00 0.00 0.00 65 1013.5
20260906012023 29 23 1.6 1.6 0.00 0.00 0.00 64 1013.5
20260906011519 29 40 0.0 1.6 0.00 0.00 0.00 64 1013.3
20260906011019 29 39 1.6 3.2 0.00 0.00 0.00 63 1013.4
20260906010515 29 49 1.6 3.2 0.00 0.00 0.00 63 1013.3
20260906010011 28 34 0.0 1.6 0.00 0.00 0.00 64 1013.4
20260906005510 28 28 1.6 1.6 0.00 0.00 0.00 65 1013.2
20260906005009 29 34 0.0 1.6 0.00 0.00 0.00 64 1013.2
20260906004508 29 34 0.0 0.0 0.00 0.00 0.00 63 1013.0
20260906004003 30 34 0.0 0.0 0.00 0.00 0.00 61 1013.0
20260906003459 30 35 0.0 0.0 0.00 0.00 0.00 61 1013.0
20260906002954 30 34 0.0 1.6 0.00 0.00 0.00 59 1013.1
20260906002454 30 25 0.0 0.0 0.00 0.00 0.00 58 1013.1
20260906001949 31 29 0.0 0.0 0.00 0.00 0.00 57 1013.3
20260906001445 31 42 0.0 0.0 0.00 0.00 0.00 56 1013.2
20260906000940 31 28 0.0 0.0 0.00 0.00 0.00 57 1013.4
20260906000436 31 21 0.0 0.0 0.00 0.00 0.00 55 1013.3
20260905235930 31 26 1.6 1.6 0.00 0.00 0.00 54 1013.1
20260905235430 31 26 1.6 1.6 0.00 0.00 0.00 53 1013.3
20260905234925 31 51 0.0 0.0 0.00 0.00 0.00 52 1013.4
20260905234421 32 43 1.6 1.6 0.00 0.00 0.00 51 1013.3
20260905233920 32 49 1.6 1.6 0.00 0.00 0.00 51 1013.4
20260905233416 32 34 0.0 1.6 0.00 0.00 0.00 51 1013.3
20260905232915 32 38 1.6 1.6 0.00 0.00 0.00 49 1013.3
20260905232411 32 27 0.0 1.6 0.00 0.00 0.00 50 1013.3
20260905231906 32 55 0.0 3.2 0.00 0.00 0.00 50 1013.1
20260905231402 32 51 1.6 4.8 0.00 0.00 0.00 49 1013.3
20260905230859 32 18 3.2 9.7 0.00 0.00 0.00 49 1013.3
20260905230356 33 98 3.2 6.4 0.00 0.00 0.00 50 1013.5
20260905225850 33 32 3.2 11.3 0.00 0.00 0.00 50 1013.6
20260905225344 33 31 8.0 14.5 0.00 0.00 0.00 49 1013.5
20260905224839 34 42 8.0 14.5 0.00 0.00 0.00 49 1013.4
20260905224335 35 43 8.0 16.1 0.00 0.00 0.00 49 1013.4
20260905223830 35 24 1.6 11.3 0.00 0.00 0.00 48 1013.1
20260905223328 36 14 9.7 16.1 0.00 0.00 0.00 45 1013.1
20260905222823 36 50 3.2 6.4 0.00 0.00 0.00 44 1013.2
20260905222321 36 38 3.2 9.7 0.00 0.00 0.00 43 1013.2
20260905221817 36 28 3.2 6.4 0.00 0.00 0.00 42 1013.2
20260905221314 36 44 4.8 9.7 0.00 0.00 0.00 42 1013.1
20260905220809 37 16 4.8 11.3 0.00 0.00 0.00 41 1013.1
20260905220306 37 8 4.8 9.7 0.00 0.00 0.00 41 1013.1
20260905215804 36 31 1.6 4.8 0.00 0.00 0.00 43 1013.0
20260905215300 36 7 6.4 9.7 0.00 0.00 0.00 42 1013.0
20260905214756 36 55 1.6 6.4 0.00 0.00 0.00 43 1012.8
20260905214252 36 73 6.4 9.7 0.00 0.00 0.00 43 1012.9
20260905213747 36 72 6.4 12.9 0.00 0.00 0.00 43 1012.9
20260905213243 36 357 8.0 12.9 0.00 0.00 0.00 43 1012.7
20260905212738 36 51 8.0 14.5 0.00 0.00 0.00 43 1013.0
20260905212237 37 58 6.4 14.5 0.00 0.00 0.00 43 1013.0
20260905211737 37 33 6.4 14.5 0.00 0.00 0.00 43 1013.1
20260905211232 37 20 4.8 9.7 0.00 0.00 0.00 43 1013.0
20260905210729 38 30 6.4 12.9 0.00 0.00 0.00 41 1013.2
20260905210228 38 282 4.8 6.4 0.00 0.00 0.00 40 1012.9
20260905205727 37 337 3.2 4.8 0.00 0.00 0.00 41 1013.1
20260905205222 37 25 4.8 6.4 0.00 0.00 0.00 41 1013.4
20260905204722 37 51 1.6 3.2 0.00 0.00 0.00 42 1013.0
20260905204218 37 25 3.2 6.4 0.00 0.00 0.00 41 1013.4
20260905203711 37 14 1.6 6.4 0.00 0.00 0.00 40 1013.3
20260905203207 38 49 8.0 12.9 0.00 0.00 0.00 38 1013.1
20260905202703 38 22 6.4 11.3 0.00 0.00 0.00 38 1013.0
20260905202157 38 64 1.6 9.7 0.00 0.00 0.00 38 1013.4
20260905201653 38 9 6.4 9.7 0.00 0.00 0.00 38 1013.4
20260905201153 38 298 1.6 6.4 0.00 0.00 0.00 39 1013.3
20260905200648 38 276 3.2 11.3 0.00 0.00 0.00 40 1013.4
20260905200144 38 74 1.6 9.7 0.00 0.00 0.00 39 1013.6
20260905195642 38 240 4.8 9.7 0.00 0.00 0.00 38 1013.8
20260905195137 38 322 3.2 12.9 0.00 0.00 0.00 40 1013.6
20260905194632 38 216 3.2 9.7 0.00 0.00 0.00 39 1013.8
20260905194131 38 352 3.2 11.3 0.00 0.00 0.00 41 1013.7
20260905193627 38 14 3.2 6.4 0.00 0.00 0.00 39 1013.6
20260905193127 38 336 6.4 12.9 0.00 0.00 0.00 39 1013.8
20260905192622 38 23 3.2 6.4 0.00 0.00 0.00 39 1014.0
20260905192119 38 47 3.2 9.7 0.00 0.00 0.00 38 1014.1
20260905191618 38 225 1.6 11.3 0.00 0.00 0.00 38 1014.3
20260905191116 38 218 4.8 9.7 0.00 0.00 0.00 38 1014.3
20260905190615 38 258 4.8 12.9 0.00 0.00 0.00 40 1014.3
20260905190114 38 10 4.8 9.7 0.00 0.00 0.00 37 1014.2
20260905185613 38 293 6.4 6.4 0.00 0.00 0.00 41 1014.5
20260905185108 38 202 8.0 11.3 0.00 0.00 0.00 40 1014.2
20260905184602 38 317 1.6 6.4 0.00 0.00 0.00 42 1014.5
20260905184101 37 21 3.2 12.9 0.00 0.00 0.00 43 1014.5
20260905183601 37 44 1.6 6.4 0.00 0.00 0.00 44 1014.5
20260905183057 37 10 3.2 9.7 0.00 0.00 0.00 43 1014.6
20260905182556 37 356 6.4 11.3 0.00 0.00 0.00 43 1014.8
20260905182051 37 266 9.7 12.9 0.00 0.00 0.00 43 1014.9
20260905181550 37 213 4.8 9.7 0.00 0.00 0.00 44 1015.0
20260905181044 37 326 4.8 4.8 0.00 0.00 0.00 44 1015.0
20260905180544 37 327 0.0 4.8 0.00 0.00 0.00 46 1014.9
20260905180040 37 248 4.8 9.7 0.00 0.00 0.00 46 1014.9
20260905175539 37 325 0.0 6.4 0.00 0.00 0.00 49 1015.0
20260905175035 37 219 3.2 6.4 0.00 0.00 0.00 47 1014.9
20260905174530 37 26 3.2 6.4 0.00 0.00 0.00 47 1015.0
20260905174026 37 281 3.2 6.4 0.00 0.00 0.00 48 1014.9
20260905173522 36 347 0.0 4.8 0.00 0.00 0.00 48 1015.0
20260905173017 36 51 4.8 6.4 0.00 0.00 0.00 47 1015.1
20260905172515 36 314 4.8 6.4 0.00 0.00 0.00 48 1014.9
20260905172011 36 17 3.2 4.8 0.00 0.00 0.00 48 1015.2
20260905171508 36 19 4.8 6.4 0.00 0.00 0.00 48 1015.3
20260905171004 36 294 3.2 6.4 0.00 0.00 0.00 48 1015.2
20260905170500 36 357 1.6 1.6 0.00 0.00 0.00 49 1015.3
20260905170000 35 337 0.0 3.2 0.00 0.00 0.00 50 1015.3
20260905165455 35 40 3.2 6.4 0.00 0.00 0.00 51 1015.5
20260905164950 35 27 1.6 4.8 0.00 0.00 0.00 50 1015.5
20260905164449 35 294 3.2 4.8 0.00 0.00 0.00 53 1015.5
20260905163944 35 37 3.2 9.7 0.00 0.00 0.00 53 1015.8
20260905163441 35 64 6.4 9.7 0.00 0.00 0.00 51 1015.7
20260905162937 34 214 3.2 4.8 0.00 0.00 0.00 53 1015.8
20260905162432 35 319 1.6 4.8 0.00 0.00 0.00 53 1015.6
20260905161927 34 271 6.4 6.4 0.00 0.00 0.00 54 1015.8
20260905161426 34 36 3.2 4.8 0.00 0.00 0.00 55 1015.8
20260905160924 33 306 1.6 3.2 0.00 0.00 0.00 54 1015.9
20260905160419 33 45 3.2 6.4 0.00 0.00 0.00 55 1015.9
20260905155918 33 249 4.8 9.7 0.00 0.00 0.00 55 1016.1
20260905155418 33 308 1.6 3.2 0.00 0.00 0.00 55 1016.0
20260905154917 33 47 4.8 6.4 0.00 0.00 0.00 56 1016.0
20260905154413 33 271 3.2 6.4 0.00 0.00 0.00 57 1016.0
20260905153908 33 237 1.6 6.4 0.00 0.00 0.00 57 1016.1
20260905153404 33 225 3.2 4.8 0.00 0.00 0.00 58 1015.8
20260905152904 33 247 3.2 4.8 0.00 0.00 0.00 58 1016.0
20260905152403 33 268 1.6 4.8 0.00 0.00 0.00 58 1016.0
20260905151858 33 300 3.2 3.2 0.00 0.00 0.00 59 1015.8
20260905151355 33 281 3.2 4.8 0.00 0.00 0.00 58 1015.9
20260905150855 33 303 1.6 11.3 0.00 0.00 0.00 58 1015.9
20260905150354 32 64 0.0 3.2 0.00 0.00 0.00 61 1016.0
20260905145851 32 345 3.2 6.4 0.00 0.00 0.00 61 1015.9
20260905145346 32 236 3.2 4.8 0.00 0.00 0.00 63 1015.9
20260905144845 31 60 0.0 3.2 0.00 0.00 0.00 63 1015.9
20260905144341 31 215 1.6 3.2 0.00 0.00 0.00 64 1016.0
20260905143839 31 282 3.2 4.8 0.00 0.00 0.00 65 1015.8
20260905143334 31 286 3.2 4.8 0.00 0.00 0.00 65 1015.8
20260905142833 30 19 0.0 1.6 0.00 0.00 0.00 66 1016.0
20260905142327 30 317 0.0 1.6 0.00 0.00 0.00 68 1016.1
20260905141823 30 223 1.6 3.2 0.00 0.00 0.00 69 1016.0
20260905141324 29 324 0.0 3.2 0.00 0.00 0.00 70 1016.0
20260905140819 29 279 1.6 3.2 0.00 0.00 0.00 69 1016.0
20260905140319 29 242 1.6 3.2 0.00 0.00 0.00 70 1015.9
20260905135818 29 75 0.0 3.2 0.00 0.00 0.00 69 1015.9
20260905135314 29 23 1.6 3.2 0.00 0.00 0.00 70 1015.9
20260905134810 29 208 6.4 6.4 0.00 0.00 0.00 69 1016.1
20260905134308 29 260 1.6 1.6 0.00 0.00 0.00 70 1015.9
20260905133808 29 279 1.6 3.2 0.00 0.00 0.00 70 1015.9
20260905133304 29 192 1.6 3.2 0.00 0.00 0.00 70 1016.1
20260905132802 29 357 0.0 1.6 0.00 0.00 0.00 71 1016.0
20260905132258 28 307 0.0 1.6 0.00 0.00 0.00 74 1015.9
20260905131753 28 339 0.0 1.6 0.00 0.00 0.00 74 1015.8
20260905131248 28 217 1.6 1.6 0.00 0.00 0.00 75 1015.7